Regional Weather Roundup
Issued by NWS

Home | Current Version | Previous Version | Text Only | Print | Product List | Glossary Off
Versions: 1 2 3 4 5 6 7 8 9 10 11 12 13 14 15 16 17 18 19 20 21 22 23 24 25 26 27

000
ASUS45 KCYS 022310
RWRWY

WYOMING REGIONAL WEATHER ROUNDUP
NATIONAL WEATHER SERVICE CHEYENNE WY
400 PM MST FRI DEC 02 2016

NOTE:  "FAIR" INDICATES FEW OR NO CLOUDS BELOW 12,000 FEET
WITH NO SIGNIFICANT WEATHER AND/OR OBSTRUCTIONS TO VISIBILITY.

WYZ001-030000-
YELLOWSTONE NATIONAL PARK

CITY           SKY/WX    TMP DP  RH WIND       PRES   REMARKS
LK YELLOWSTONE   N/A     18   9  68 VRB5      30.11S WCI  11
W YELLOWSTONE  NOT AVBL

$$
WYZ002>013-054>058-071-098>099-030000-
NORTHERN WYOMING

CITY           SKY/WX    TMP DP  RH WIND       PRES   REMARKS
JACKSON        FAIR      23  16  74 SE3       30.16S
CODY           FAIR      34   6  31 W9        30.08F WCI  27
GREYBULL       FAIR      37  20  50 SE9       30.12F WCI  30
WORLAND        FAIR      36  19  50 SE6       30.13F WCI  31
SHERIDAN       FAIR      36  22  56 S9        30.11F WCI  29
BUFFALO        FAIR      35  19  52 E7        30.10F WCI  29
GILLETTE       FAIR      34  18  52 S3        30.13F
HULETT         FAIR      32  23  69 SW6       30.15F WCI  26
NEWCASTLE      FAIR      32  23  69 W5        30.17S WCI  27

$$
WYZ014>020-022>026-101>103-030000-
CENTRAL WYOMING

CITY           SKY/WX    TMP DP  RH WIND       PRES   REMARKS
BIG PINEY      FAIR      26  10  50 SW6       30.13S WCI  19
PINEDALE       FAIR      27  10  50 MISG      30.13F
DUBOIS         MOCLDY    23  10  58 W16       30.07S HAZE    WCI  10
LANDER         FAIR      28  17  63 SW5       30.12S WCI  23
RIVERTON       FAIR      30  17  58 S9        30.13S WCI  22
CASPER         MOCLDY    31  19  61 S8        30.14S WCI  23
DOUGLAS        MOCLDY    32  22  66 CALM      30.16S

$$
WYZ021-027>030-104>119-030000-
SOUTHERN WYOMING

CITY           SKY/WX    TMP DP  RH WIND       PRES   REMARKS
EVANSTON       FAIR      23  10  57 N7        30.15R WCI  15
FORT BRIDGER   FAIR      25  10  54 NW6       30.18R WCI  18
ROCK SPRINGS   CLOUDY    23  13  65 NW5       30.14R WCI  17
DIXON          FAIR      22  14  71 CALM      30.15R
RAWLINS        CLOUDY    23  14  68 CALM      30.11S
SARATOGA       CLOUDY    19  14  79 NW5       30.11S WCI  13
LARAMIE        FLURRIES  23  15  71 SE12      30.07F WCI  12
CHEYENNE       LGT SNOW  27  21  78 S8        30.13S WCI  19
TORRINGTON     MOCLDY    36  21  54 CALM      30.17S
PINE BLUFFS    CLOUDY    30  28  93 SW6       30.18S WCI  24

$$




USA.gov is the U.S. government's official web portal to all federal, state and local government web resources and services.